Location: Casilda
(33.0440°S, 61.1680°W)
Time: 11:21:34
(UTC-03:00)

ISS - Pass Details

Date: 19 May 2018
Orbit: 402 x 406 km, 51.6° (Epoch: 19 June)

Event Time Altitude Azimuth Distance (km) Brightness Sun altitude
Rises 18:27:09 0° 238° (WSW) 2,359 0.6 -4.0°
Reaches altitude 10° 18:29:26 10° 250° (WSW) 1,489 -0.1 -4.4°
Maximum altitude 18:32:19 27° 309° (NW) 825 -1.3 -5.0°
Drops below altitude 10° 18:35:11 10° 10° (N) 1,470 -0.8 -5.5°
Sets 18:37:26 0° 22° (NNE) 2,321 0.0 -6.0°
